FW0304 Weather Reports


Display with metric or nautical units.
time (UTC)temp
F
wind
direction
speed
MPH
gust
MPH
rain 1hr
in
rain 24hr
in
rain mn
in
humidity
%
barometer
mb
20260903030040 81 102 0.0 0.0 0.00 0.00 0.00 83 1016.5
20260903024532 81 102 0.0 0.0 0.00 0.00 0.00 82 1016.5
20260903023016 82 102 0.0 0.0 0.00 0.00 0.00 81 1016.4
20260903021526 82 102 0.0 0.0 0.00 0.00 0.00 81 1016.3
20260903020031 82 102 0.0 0.0 0.00 0.00 0.00 79 1016.3
20260903014512 83 102 0.0 0.0 0.00 0.00 0.00 78 1016.2
20260903013016 83 102 0.0 0.0 0.00 0.00 0.00 77 1015.8
20260903011526 84 102 0.0 0.0 0.00 0.00 0.00 77 1015.8
20260903010030 84 102 0.0 0.0 0.00 0.00 0.00 74 1015.7
20260903004508 85 102 0.0 0.0 0.00 0.00 0.00 73 1015.5
20260903003014 86 102 0.0 0.0 0.00 0.00 0.00 72 1015.5
20260903001530 87 102 0.0 0.0 0.00 0.00 0.00 69 1015.4
20260903000027 89 102 0.0 0.0 0.00 0.00 0.00 66 1015.4
20260902234535 90 102 0.0 0.0 0.00 0.00 0.00 63 1015.4
20260902233012 92 102 0.0 0.0 0.00 0.00 0.00 60 1015.3
20260902231524 95 102 0.0 2.0 0.00 0.00 0.00 51 1015.3
20260902230026 95 73 0.0 2.0 0.00 0.00 0.00 48 1015.4
20260902224532 95 60 0.0 2.0 0.00 0.00 0.00 47 1015.6
20260902223034 95 144 1.0 2.0 0.00 0.00 0.00 47 1015.6
20260902221518 95 352 0.0 2.0 0.00 0.00 0.00 47 1015.6
20260902220024 96 352 0.0 2.0 0.00 0.00 0.00 47 1015.4
20260902214529 96 325 0.0 4.0 0.00 0.00 0.00 47 1015.6
20260902213033 96 120 0.0 2.0 0.00 0.00 0.00 46 1015.8
20260902211512 96 81 0.0 2.0 0.00 0.00 0.00 46 1015.9
20260902210020 96 154 0.0 2.0 0.00 0.00 0.00 47 1015.8
20260902204529 96 19 1.0 2.0 0.00 0.00 0.00 46 1016.0
20260902203027 96 163 1.0 4.0 0.00 0.00 0.00 46 1016.1
20260902201532 96 15 0.0 2.0 0.00 0.00 0.00 46 1016.1
20260902200017 95 13 0.0 2.0 0.00 0.00 0.00 47 1016.5
20260902194535 95 115 0.0 3.0 0.00 0.00 0.00 47 1016.7
20260902193029 96 289 0.0 2.0 0.00 0.00 0.00 47 1017.0
20260902191531 97 136 0.0 3.0 0.00 0.00 0.00 45 1017.2
20260902190050 96 352 0.0 3.0 0.00 0.00 0.00 46 1017.5
20260902184527 96 126 1.0 4.0 0.00 0.00 0.00 46 1017.7
20260902183035 96 352 1.0 4.0 0.00 0.00 0.00 46 1017.8
20260902181530 96 340 0.0 7.0 0.00 0.00 0.00 47 1017.9
20260902180039 96 137 1.0 4.0 0.00 0.00 0.00 43 1018.2
20260902174533 95 343 0.0 4.0 0.00 0.00 0.00 45 1018.4
20260902173033 96 123 0.0 4.0 0.00 0.00 0.00 47 1018.5
20260902171504 95 173 1.0 3.0 0.00 0.00 0.00 48 1018.7
20260902170010 96 150 1.0 4.0 0.00 0.00 0.00 49 1019.1
20260902164523 94 132 0.0 3.0 0.00 0.00 0.00 54 1019.0
20260902163024 94 350 1.0 3.0 0.00 0.00 0.00 55 1019.4
20260902161507 93 315 0.0 2.0 0.00 0.00 0.00 57 1019.5
20260902160010 93 308 0.0 2.0 0.00 0.00 0.00 60 1019.5
20260902154516 92 332 0.0 2.0 0.00 0.00 0.00 62 1019.6
20260902153024 92 134 1.0 2.0 0.00 0.00 0.00 60 1019.5
20260902151529 90 195 0.0 2.0 0.00 0.00 0.00 65 1019.5
20260902150008 91 346 0.0 2.0 0.00 0.00 0.00 63 1019.4
20260902144512 88 328 0.0 2.0 0.00 0.00 0.00 67 1019.3
20260902143020 87 37 0.0 2.0 0.00 0.00 0.00 69 1019.2
20260902141532 85 25 0.0 2.0 0.00 0.00 0.00 75 1019.2
20260902140029 84 25 0.0 2.0 0.00 0.00 0.00 76 1019.4
20260902134518 81 25 0.0 0.0 0.00 0.00 0.00 80 1019.5
20260902133026 79 25 0.0 2.0 0.00 0.00 0.00 85 1019.4
20260902131524 77 25 0.0 2.0 0.00 0.00 0.00 88 1019.4
20260902130033 76 25 0.0 0.0 0.00 0.00 0.00 89 1019.5
20260902124511 74 25 0.0 1.0 0.00 0.00 0.00 91 1019.4
20260902123015 73 25 0.0 0.0 0.00 0.00 0.00 92 1019.3
20260902121519 72 25 0.0 0.0 0.00 0.00 0.00 93 1019.2
20260902120027 72 25 0.0 0.0 0.00 0.00 0.00 93 1019.0
20260902114529 72 25 0.0 0.0 0.00 0.00 0.00 93 1018.8
20260902113017 72 25 0.0 0.0 0.00 0.00 0.00 93 1018.7
20260902111519 72 25 0.0 0.0 0.00 0.00 0.00 93 1018.4
20260902110024 72 25 0.0 0.0 0.00 0.00 0.00 93 1018.2
20260902104533 72 25 0.0 0.0 0.00 0.00 0.00 93 1018.2
20260902103031 72 25 0.0 0.0 0.00 0.00 0.00 93 1018.1
20260902101512 72 25 0.0 0.0 0.00 0.00 0.00 92 1018.0
20260902100023 73 25 0.0 0.0 0.00 0.00 0.00 92 1018.0
20260902094527 73 25 0.0 0.0 0.00 0.00 0.00 92 1017.9
20260902093029 73 25 0.0 0.0 0.00 0.00 0.00 92 1017.7
20260902091533 73 25 0.0 0.0 0.00 0.00 0.00 91 1017.5
20260902090017 73 25 0.0 0.0 0.00 0.00 0.00 91 1017.5
20260902084531 73 25 0.0 0.0 0.00 0.00 0.00 91 1017.5
20260902083011 74 25 0.0 0.0 0.00 0.00 0.00 91 1017.4
20260902081508 74 25 0.0 1.0 0.00 0.00 0.00 91 1017.4
20260902080014 74 25 0.0 1.0 0.00 0.00 0.00 91 1017.3
20260902074525 74 35 0.0 0.0 0.00 0.00 0.00 91 1017.3
20260902073027 74 35 0.0 0.0 0.00 0.00 0.00 91 1017.1
20260902071512 74 35 0.0 0.0 0.00 0.00 0.00 91 1017.1
20260902070013 75 35 0.0 0.0 0.00 0.00 0.00 90 1017.2
20260902064526 75 35 0.0 0.0 0.00 0.00 0.00 90 1017.2
20260902063052 75 35 0.0 0.0 0.00 0.00 0.00 90 1017.3
20260902061531 75 35 0.0 0.0 0.00 0.00 0.00 90 1017.3
20260902060012 75 35 0.0 0.0 0.00 0.00 0.00 89 1017.4
20260902054519 76 35 0.0 0.0 0.00 0.00 0.00 89 1017.4
20260902053023 76 35 0.0 0.0 0.00 0.00 0.00 88 1017.4
20260902051538 76 35 0.0 0.0 0.00 0.00 0.00 88 1017.5
20260902050034 77 35 0.0 0.0 0.00 0.00 0.00 88 1017.4
20260902044516 77 35 0.0 0.0 0.00 0.00 0.00 88 1017.5
20260902043024 77 35 0.0 0.0 0.00 0.00 0.00 88 1017.4
20260902041541 77 35 0.0 0.0 0.00 0.00 0.00 87 1017.5
20260902040034 78 35 0.0 0.0 0.00 0.00 0.00 86 1017.4
20260902034512 78 35 0.0 0.0 0.00 0.00 0.00 85 1017.5
20260902033018 78 35 0.0 0.0 0.00 0.00 0.00 84 1017.6
20260902031528 79 35 0.0 0.0 0.00 0.00 0.00 84 1017.5